Location: Sobotiste
(48.7170°N, 17.4000°E)
Time: 01:06:12
(UTC+01:00)

UKube-1 - Visible Passes

Search period start: 14 March 2026 00:00
Search period end: 24 March 2026 00:00
Orbit: 528 x 533 km, 98.4° (Epoch: 13 March)

Date Brightness Start Highest point End Pass type
(mag) Time Alt. Az. Time Alt. Az. Time Alt. Az.
14 Mar ? 04:22:04 10° NE 04:24:50 19° E 04:27:35 10° SE visible
15 Mar ? 04:12:11 10° NE 04:14:24 15° E 04:16:35 10° SE visible
16 Mar ? 04:02:42 10° ENE 04:03:54 11° E 04:05:07 10° ESE visible
17 Mar ? 05:24:24 10° NNE 05:28:16 87° ESE 05:32:06 10° SSW visible
18 Mar ? 05:14:01 10° NNE 05:17:51 66° ESE 05:21:40 10° S visible
19 Mar ? 05:03:39 10° NNE 05:07:24 49° E 05:11:08 10° S visible
20 Mar ? 04:53:19 10° NNE 04:56:55 37° E 05:00:30 10° SSE visible
21 Mar ? 04:43:01 10° NE 04:46:24 28° E 04:49:45 10° SSE visible
22 Mar ? 04:32:47 10° NE 04:35:51 22° E 04:38:53 10° SSE visible
23 Mar ? 04:22:38 10° NE 04:25:15 17° E 04:27:50 10° SE visible
